KB6LA Weather Reports


Display with metric or nautical units.
time (UTC)temp
F
wind
direction
speed
MPH
gust
MPH
rain 1hr
in
rain 24hr
in
rain mn
in
humidity
%
barometer
mb
20260508231218 65 225 6.0 14.0 0.00 0.00 0.00 78 1012.8
20260508230709 65 281 8.0 14.0 0.00 0.00 0.00 78 1012.8
20260508230202 65 218 8.0 15.0 0.00 0.00 0.00 78 1012.8
20260508225654 65 223 10.0 15.0 0.00 0.00 0.00 78 1012.8
20260508225147 66 205 9.0 14.0 0.00 0.00 0.00 75 1012.8
20260508224640 65 249 9.0 16.0 0.00 0.00 0.00 78 1013.1
20260508224132 65 260 7.0 16.0 0.00 0.00 0.00 78 1013.1
20260508223625 66 273 6.0 15.0 0.00 0.00 0.00 77 1013.1
20260508223116 65 220 7.0 16.0 0.00 0.00 0.00 77 1013.1
20260508222101 66 246 9.0 14.0 0.00 0.00 0.00 77 1013.4
20260508221553 66 187 7.0 13.0 0.00 0.00 0.00 78 1013.1
20260508221046 66 255 8.0 13.0 0.00 0.00 0.00 77 1013.4
20260508220538 65 265 7.0 16.0 0.00 0.00 0.00 78 1013.4
20260508220031 65 248 13.0 16.0 0.00 0.00 0.00 76 1013.4
20260508215523 65 232 9.0 15.0 0.00 0.00 0.00 76 1013.4
20260508214508 66 266 6.0 14.0 0.00 0.00 0.00 75 1013.8
20260508213452 65 233 6.0 14.0 0.00 0.00 0.00 76 1013.8
20260508212945 66 253 8.0 14.0 0.00 0.00 0.00 74 1013.8
20260508211930 66 236 5.0 15.0 0.00 0.00 0.00 76 1013.8
20260508211422 66 256 7.0 14.0 0.00 0.00 0.00 75 1014.1
20260508210915 67 209 6.0 14.0 0.00 0.00 0.00 74 1014.1
20260508210407 67 238 6.0 13.0 0.00 0.00 0.00 74 1014.1
20260508205900 67 203 6.0 14.0 0.00 0.00 0.00 75 1014.1
20260508205352 66 193 6.0 14.0 0.00 0.00 0.00 75 1014.1
20260508203829 66 272 7.0 11.0 0.00 0.00 0.00 75 1014.1
20260508203321 66 219 7.0 13.0 0.00 0.00 0.00 76 1014.1
20260508202814 65 239 9.0 16.0 0.00 0.00 0.00 76 1014.5
20260508202307 66 239 12.0 16.0 0.00 0.00 0.00 75 1014.5
20260508201759 66 276 4.0 14.0 0.00 0.00 0.00 77 1014.5
20260508201251 67 243 5.0 13.0 0.00 0.00 0.00 74 1014.5
20260508200744 67 207 8.0 13.0 0.00 0.00 0.00 75 1014.5
20260508195728 67 250 8.0 14.0 0.00 0.00 0.00 75 1014.5
20260508194713 67 201 5.0 11.0 0.00 0.00 0.00 75 1014.5
20260508194205 66 228 5.0 13.0 0.00 0.00 0.00 77 1014.5
20260508193658 66 238 4.0 13.0 0.00 0.00 0.00 75 1014.8
20260508193150 66 207 7.0 11.0 0.00 0.00 0.00 75 1014.5
20260508192643 66 239 3.0 13.0 0.00 0.00 0.00 76 1014.8
20260508192135 66 252 5.0 13.0 0.00 0.00 0.00 75 1014.8
20260508191628 66 297 4.0 10.0 0.00 0.00 0.00 76 1014.8
20260508191119 66 184 7.0 9.0 0.00 0.00 0.00 76 1014.8
20260508190612 66 245 6.0 11.0 0.00 0.00 0.00 76 1014.8
20260508190104 65 218 6.0 11.0 0.00 0.00 0.00 77 1015.1
20260508185557 65 200 5.0 10.0 0.00 0.00 0.00 77 1015.1
20260508185049 66 212 2.0 9.0 0.00 0.00 0.00 77 1015.1
20260508184542 65 172 5.0 10.0 0.00 0.00 0.00 77 1015.1
20260508184034 65 231 7.0 10.0 0.00 0.00 0.00 77 1015.1
20260508183527 66 245 3.0 10.0 0.00 0.00 0.00 76 1015.1
20260508183019 65 242 2.0 9.0 0.00 0.00 0.00 76 1015.1
20260508182512 65 284 4.0 13.0 0.00 0.00 0.00 77 1015.1
20260508182003 65 214 4.0 13.0 0.00 0.00 0.00 78 1015.1
20260508180948 64 180 4.0 10.0 0.00 0.00 0.00 79 1015.1
20260508175933 65 227 5.0 7.0 0.00 0.00 0.00 75 1015.5
20260508174918 66 193 3.0 4.0 0.00 0.00 0.00 73 1015.1
20260508173903 66 286 0.0 4.0 0.00 0.00 0.00 74 1015.5
20260508173355 65 331 1.0 4.0 0.00 0.00 0.00 76 1015.5
20260508172848 64 249 3.0 4.0 0.00 0.00 0.00 77 1015.5
20260508172340 64 266 1.0 7.0 0.00 0.00 0.00 77 1015.5
20260508171325 64 205 1.0 6.0 0.00 0.00 0.00 78 1015.5
20260508170817 64 209 1.0 4.0 0.00 0.00 0.00 77 1015.5
20260508170310 64 223 2.0 4.0 0.00 0.00 0.00 77 1015.5
20260508165802 64 219 2.0 4.0 0.00 0.00 0.00 78 1015.5
20260508165254 63 221 3.0 4.0 0.00 0.00 0.00 79 1015.1
20260508164747 63 229 3.0 6.0 0.00 0.00 0.00 79 1015.5
20260508164239 63 219 5.0 7.0 0.00 0.00 0.00 79 1015.5
20260508163731 63 39 1.0 7.0 0.00 0.00 0.00 79 1015.5
20260508163224 63 63 3.0 6.0 0.00 0.00 0.00 79 1015.1
20260508162717 63 222 1.0 4.0 0.00 0.00 0.00 79 1015.1
20260508162209 63 46 1.0 4.0 0.00 0.00 0.00 79 1015.1
20260508161702 63 234 2.0 4.0 0.00 0.00 0.00 79 1015.1
20260508161153 63 200 2.0 3.0 0.00 0.00 0.00 79 1015.1
20260508160646 63 113 2.0 3.0 0.00 0.00 0.00 79 1015.1
20260508160138 63 342 0.0 2.0 0.00 0.00 0.00 79 1015.5
20260508155631 63 258 1.0 2.0 0.00 0.00 0.00 80 1015.1
20260508155124 63 290 0.0 4.0 0.00 0.00 0.00 81 1015.1
20260508154615 62 38 2.0 4.0 0.00 0.00 0.00 81 1015.1
20260508153600 62 290 0.0 3.0 0.00 0.00 0.00 82 1015.5
20260508153053 62 275 0.0 3.0 0.00 0.00 0.00 83 1015.5
20260508152545 61 162 2.0 4.0 0.00 0.00 0.00 83 1015.1
20260508152037 61 104 4.0 4.0 0.00 0.00 0.00 82 1015.5
20260508151530 61 172 3.0 4.0 0.00 0.00 0.00 83 1015.5
20260508151023 61 336 0.0 6.0 0.00 0.00 0.00 84 1015.5
20260508150007 61 161 3.0 7.0 0.00 0.00 0.00 84 1015.5
20260508144444 61 259 1.0 4.0 0.00 0.00 0.00 84 1015.5
20260508143937 61 162 2.0 4.0 0.00 0.00 0.00 84 1015.5
20260508143429 61 158 1.0 4.0 0.00 0.00 0.00 84 1015.5
20260508142922 61 159 2.0 4.0 0.00 0.00 0.00 85 1015.5
20260508141906 61 113 4.0 6.0 0.00 0.00 0.00 85 1015.5
20260508141359 60 275 0.0 6.0 0.00 0.00 0.00 85 1015.5
20260508140851 60 145 4.0 4.0 0.00 0.00 0.00 85 1015.1
20260508140344 60 278 0.0 2.0 0.00 0.00 0.00 86 1015.1
20260508135835 60 279 0.0 3.0 0.00 0.00 0.00 86 1015.1
20260508135328 60 253 1.0 4.0 0.00 0.00 0.00 85 1015.1
20260508134820 61 114 3.0 4.0 0.00 0.00 0.00 85 1015.5
20260508134313 61 58 2.0 4.0 0.00 0.00 0.00 85 1015.1
20260508133805 61 119 4.0 4.0 0.00 0.00 0.00 85 1015.1
20260508133258 61 341 0.0 3.0 0.00 0.00 0.00 85 1015.1
20260508132750 60 60 1.0 3.0 0.00 0.00 0.00 86 1015.1
20260508132243 61 55 2.0 3.0 0.00 0.00 0.00 85 1015.1
20260508131736 61 26 0.0 4.0 0.00 0.00 0.00 85 1015.1
20260508130212 61 3 2.0 3.0 0.00 0.00 0.00 86 1015.1
20260508125705 61 355 0.0 4.0 0.00 0.00 0.00 86 1014.8
20260508125157 61 350 0.0 6.0 0.00 0.00 0.00 86 1014.8
20260508124649 61 63 4.0 6.0 0.00 0.00 0.00 86 1014.8
20260508124142 61 352 1.0 4.0 0.00 0.00 0.00 86 1014.8
20260508123127 61 27 1.0 4.0 0.00 0.00 0.00 86 1014.5
20260508122112 61 350 1.0 2.0 0.00 0.00 0.00 86 1014.5
20260508121603 61 316 0.0 2.0 0.00 0.00 0.00 86 1014.5
20260508121056 61 116 1.0 6.0 0.00 0.00 0.00 86 1014.5
20260508120042 61 53 3.0 6.0 0.00 0.00 0.00 86 1014.5
20260508115533 61 338 1.0 7.0 0.00 0.00 0.00 86 1014.5
20260508115025 60 50 4.0 7.0 0.00 0.00 0.00 87 1014.5
20260508114518 60 2 3.0 6.0 0.00 0.00 0.00 87 1014.5
20260508114011 60 26 1.0 4.0 0.00 0.00 0.00 87 1014.5
20260508113503 60 40 1.0 2.0 0.00 0.00 0.00 87 1014.5
20260508112449 60 347 1.0 2.0 0.00 0.00 0.00 87 1014.5
20260508111433 60 342 0.0 3.0 0.00 0.00 0.00 87 1014.5
20260508110925 60 127 0.0 3.0 0.00 0.00 0.00 87 1014.5
20260508110418 60 57 3.0 3.0 0.00 0.00 0.00 87 1014.5
20260508105403 60 344 1.0 3.0 0.00 0.00 0.00 87 1014.5
20260508104855 60 30 1.0 3.0 0.00 0.00 0.00 87 1014.5
20260508104347 60 266 0.0 3.0 0.00 0.00 0.00 87 1014.5
20260508103839 60 189 3.0 3.0 0.00 0.00 0.00 87 1014.5
20260508103332 60 11 0.0 3.0 0.00 0.00 0.00 87 1014.5
20260508102824 60 326 1.0 2.0 0.00 0.00 0.00 87 1014.5
20260508102317 60 330 0.0 4.0 0.00 0.00 0.00 87 1014.5
20260508101809 60 1 1.0 4.0 0.00 0.00 0.00 87 1014.5
20260508101302 60 316 0.0 1.0 0.00 0.00 0.00 87 1014.5
20260508100753 60 317 0.0 1.0 0.00 0.00 0.00 87 1014.5
20260508100246 60 290 1.0 1.0 0.00 0.00 0.00 87 1014.5
20260508095739 60 315 1.0 2.0 0.00 0.00 0.00 87 1014.5
20260508095231 60 313 0.0 2.0 0.00 0.00 0.00 88 1014.5
20260508094216 59 308 1.0 3.0 0.00 0.00 0.00 88 1014.5
20260508093708 59 288 2.0 4.0 0.00 0.00 0.00 88 1014.5
20260508093201 59 283 3.0 4.0 0.00 0.00 0.00 89 1014.5
20260508091637 60 264 0.0 2.0 0.00 0.00 0.00 90 1014.5
20260508091131 60 244 1.0 2.0 0.00 0.00 0.00 90 1014.5
20260508090622 59 242 1.0 2.0 0.00 0.00 0.00 90 1014.8
20260508090115 59 243 2.0 2.0 0.00 0.00 0.00 89 1014.5
20260508085608 60 266 1.0 1.0 0.00 0.00 0.00 89 1014.5
20260508085100 60 267 0.0 1.0 0.00 0.00 0.00 89 1014.8
20260508084552 60 270 1.0 1.0 0.00 0.00 0.00 89 1014.5
20260508084045 60 271 1.0 2.0 0.00 0.00 0.00 89 1014.8
20260508083537 60 254 1.0 2.0 0.00 0.00 0.00 89 1014.8
20260508083030 60 228 2.0 2.0 0.00 0.00 0.00 89 1014.8
20260508082522 60 255 0.0 1.0 0.00 0.00 0.00 88 1014.8
20260508082014 60 256 0.0 1.0 0.00 0.00 0.00 88 1014.8
20260508081506 60 256 0.0 3.0 0.00 0.00 0.00 88 1014.8
20260508080452 60 150 2.0 3.0 0.00 0.00 0.00 88 1015.1
20260508075436 60 206 2.0 4.0 0.00 0.00 0.00 88 1015.1
20260508073913 60 217 1.0 3.0 0.00 0.00 0.00 87 1015.1
20260508073405 60 204 1.0 3.0 0.00 0.00 0.00 87 1015.1
20260508072858 60 176 3.0 3.0 0.00 0.00 0.00 87 1015.1
20260508072350 60 216 2.0 3.0 0.00 0.00 0.00 87 1015.1
20260508071843 60 267 0.0 3.0 0.00 0.00 0.00 87 1015.1
20260508071335 60 350 0.0 2.0 0.00 0.00 0.00 88 1015.1
20260508070828 60 24 2.0 2.0 0.00 0.00 0.00 87 1015.1
20260508065812 60 294 0.0 3.0 0.00 0.00 0.00 88 1015.1
20260508065307 60 141 1.0 3.0 0.00 0.00 0.00 88 1015.1
20260508064757 60 179 0.0 2.0 0.00 0.00 0.00 88 1015.1
20260508064250 60 178 0.0 2.0 0.00 0.00 0.00 88 1015.1
20260508063234 60 272 0.0 3.0 0.00 0.00 0.00 88 1015.1
20260508062727 60 251 0.0 1.0 0.00 0.00 0.00 88 1015.1
20260508062219 60 252 1.0 1.0 0.00 0.00 0.00 88 1014.8
20260508061713 60 248 0.0 2.0 0.00 0.00 0.00 88 1015.1
20260508061204 60 249 0.0 2.0 0.00 0.00 0.00 88 1014.8
20260508060657 59 199 0.0 3.0 0.00 0.00 0.00 88 1014.8
20260508055642 60 175 4.0 7.0 0.00 0.00 0.00 88 1015.1
20260508055135 60 171 2.0 3.0 0.00 0.00 0.00 88 1014.8
20260508054626 60 132 1.0 4.0 0.00 0.00 0.00 89 1014.8
20260508054119 59 247 0.0 6.0 0.00 0.00 0.00 88 1015.1
20260508053611 60 231 2.0 6.0 0.00 0.00 0.00 88 1015.1
20260508053104 60 174 2.0 3.0 0.00 0.00 0.00 89 1014.8
20260508052556 60 191 2.0 3.0 0.00 0.00 0.00 89 1015.1
20260508052048 60 139 2.0 4.0 0.00 0.00 0.00 89 1015.1
20260508051034 60 224 1.0 3.0 0.00 0.00 0.00 89 1015.1
20260508050525 60 181 2.0 3.0 0.00 0.00 0.00 89 1014.8
20260508050017 60 261 0.0 3.0 0.00 0.00 0.00 89 1014.8
20260508045510 60 295 1.0 3.0 0.00 0.00 0.00 89 1014.8
20260508045002 60 252 2.0 4.0 0.00 0.00 0.00 89 1014.8
20260508044455 59 295 1.0 4.0 0.00 0.00 0.00 89 1014.8
20260508043948 59 274 3.0 3.0 0.00 0.00 0.00 89 1014.5
20260508043440 59 276 2.0 3.0 0.00 0.00 0.00 89 1014.8
20260508042932 59 270 1.0 3.0 0.00 0.00 0.00 89 1014.5
20260508042424 59 313 1.0 3.0 0.00 0.00 0.00 89 1014.5
20260508041917 59 266 1.0 3.0 0.00 0.00 0.00 89 1014.5
20260508041409 59 249 2.0 3.0 0.00 0.00 0.00 89 1014.5
20260508040902 59 245 3.0 4.0 0.00 0.00 0.00 89 1014.5
20260508035846 59 228 2.0 4.0 0.00 0.00 0.00 89 1014.1
20260508035339 59 208 2.0 4.0 0.00 0.00 0.00 89 1014.1
20260508034831 59 246 3.0 4.0 0.00 0.00 0.00 89 1014.1
20260508034324 59 244 3.0 6.0 0.00 0.00 0.00 89 1013.8
20260508032801 59 238 4.0 7.0 0.00 0.00 0.00 89 1013.8
20260508031745 59 282 2.0 4.0 0.00 0.00 0.00 89 1013.4
20260508031238 59 232 2.0 6.0 0.00 0.00 0.00 89 1013.8
20260508030731 59 228 3.0 6.0 0.00 0.00 0.00 89 1013.4
20260508030223 59 227 3.0 6.0 0.00 0.00 0.00 89 1013.4
20260508025715 59 236 2.0 8.0 0.00 0.00 0.00 89 1013.4
20260508024152 59 268 4.0 8.0 0.00 0.00 0.00 88 1013.4
20260508023645 60 260 3.0 8.0 0.00 0.00 0.00 88 1013.4
20260508022629 60 266 2.0 8.0 0.00 0.00 0.00 87 1013.1
20260508022122 60 225 3.0 8.0 0.00 0.00 0.00 86 1013.1
20260508021615 60 228 6.0 9.0 0.00 0.00 0.00 86 1013.1
20260508020600 61 184 6.0 7.0 0.00 0.00 0.00 83 1013.1
20260508020053 61 281 4.0 8.0 0.00 0.00 0.00 83 1013.1
20260508015544 62 268 3.0 10.0 0.00 0.00 0.00 82 1013.1
20260508015037 62 235 4.0 10.0 0.00 0.00 0.00 83 1013.1
20260508014529 62 288 2.0 9.0 0.00 0.00 0.00 82 1012.8
20260508014022 62 281 5.0 9.0 0.00 0.00 0.00 81 1012.8
20260508013006 62 231 6.0 10.0 0.00 0.00 0.00 82 1012.8
20260508011951 63 214 5.0 10.0 0.00 0.00 0.00 79 1013.1
20260508011444 63 228 6.0 10.0 0.00 0.00 0.00 81 1013.1
20260508010429 62 249 5.0 13.0 0.00 0.00 0.00 82 1012.8
20260508005921 62 262 7.0 13.0 0.00 0.00 0.00 80 1012.8
20260508005413 63 230 7.0 13.0 0.00 0.00 0.00 79 1012.8
20260508004905 64 272 9.0 13.0 0.00 0.00 0.00 78 1012.8
20260508004358 64 234 6.0 13.0 0.00 0.00 0.00 77 1013.1
20260508003851 64 216 8.0 14.0 0.00 0.00 0.00 76 1012.8
20260508003342 65 263 7.0 14.0 0.00 0.00 0.00 75 1012.8
20260508002835 65 231 6.0 11.0 0.00 0.00 0.00 75 1012.8
20260508002328 65 266 5.0 15.0 0.00 0.00 0.00 73 1012.8
20260508001819 65 245 4.0 15.0 0.00 0.00 0.00 72 1012.8
20260508000804 65 211 7.0 13.0 0.00 0.00 0.00 72 1012.8
20260508000257 66 243 9.0 11.0 0.00 0.00 0.00 70 1012.8
20260507235750 66 265 9.0 14.0 0.00 0.00 0.00 69 1012.8
20260507235242 66 256 5.0 14.0 0.00 0.00 0.00 70 1012.8
20260507234734 65 182 5.0 13.0 0.00 0.00 0.00 71 1013.1
20260507234226 66 228 9.0 13.0 0.00 0.00 0.00 71 1013.1
20260507233719 66 281 8.0 13.0 0.00 0.00 0.00 71 1012.8
20260507233212 65 207 6.0 13.0 0.00 0.00 0.00 73 1013.1
20260507232703 65 252 6.0 13.0 0.00 0.00 0.00 73 1013.1
20260507232156 65 257 6.0 13.0 0.00 0.00 0.00 72 1013.1
20260507231648 66 230 8.0 10.0 0.00 0.00 0.00 73 1013.1